GW5247 Weather Reports


time (UTC)temp
C
wind
direction
speed
KPH
gust
KPH
rain 1hr
cm
rain 24hr
cm
rain mn
cm
humidity
%
barometer
mb
20260505140516 20 249 4.8 19.3 0.00 0.00 0.00 64 1017.2
20260505124518 17 276 3.2 9.7 0.00 0.00 0.00 72 1017.3
20260505123518 16 253 1.6 6.4 0.00 0.00 0.00 74 1017.5
20260505122518 16 264 1.6 6.4 0.00 0.00 0.00 75 1017.5
20260505121515 15 283 1.6 6.4 0.00 0.00 0.00 77 1017.5
20260505120515 13 274 3.2 6.4 0.00 0.00 0.00 79 1017.4
20260505115515 12 33 0.0 3.2 0.00 0.00 0.00 84 1017.6
20260505114515 11 350 0.0 4.8 0.00 0.00 0.00 89 1017.6
20260505113515 11 37 1.6 3.2 0.00 0.00 0.00 94 1017.5
20260505112536 10 37 0.0 3.2 0.00 0.00 0.00 95 1017.5
20260505111516 10 18 0.0 1.6 0.00 0.00 0.00 95 1017.4
20260505110516 9 20 0.0 1.6 0.00 0.00 0.00 95 1017.4
20260505101517 9 22 1.6 4.8 0.00 0.00 0.00 93 1017.0
20260505100517 9 353 0.0 1.6 0.00 0.00 0.00 93 1016.9
20260505095537 9 42 0.0 1.6 0.00 0.00 0.00 92 1016.9
20260505094517 10 27 0.0 1.6 0.00 0.00 0.00 91 1016.9
20260505093517 10 39 0.0 1.6 0.00 0.00 0.00 91 1016.9
20260505092518 10 39 0.0 1.6 0.00 0.00 0.00 90 1016.9
20260505091518 10 330 0.0 1.6 0.00 0.00 0.00 89 1016.8
20260505090518 10 25 0.0 3.2 0.00 0.00 0.00 87 1016.8
20260505085518 11 7 0.0 3.2 0.00 0.00 0.00 86 1016.7
20260505084518 11 65 0.0 4.8 0.00 0.00 0.00 85 1016.6
20260505083515 11 43 0.0 3.2 0.00 0.00 0.00 85 1016.5
20260505082516 11 29 1.6 3.2 0.00 0.00 0.00 85 1016.5
20260505081516 11 25 1.6 3.2 0.00 0.00 0.00 85 1016.4
20260505080516 11 22 0.0 3.2 0.00 0.00 0.00 84 1016.3
20260505075516 11 17 0.0 3.2 0.00 0.00 0.00 83 1016.3
20260505074516 12 32 1.6 3.2 0.00 0.00 0.00 83 1016.2
20260505073517 12 33 0.0 3.2 0.00 0.00 0.00 83 1016.2
20260505072537 12 48 1.6 3.2 0.00 0.00 0.00 82 1016.3
20260505071517 12 49 0.0 3.2 0.00 0.00 0.00 82 1016.3
20260505070517 12 30 0.0 3.2 0.00 0.00 0.00 81 1016.2
20260505065517 12 21 0.0 1.6 0.00 0.00 0.00 80 1016.2
20260505064517 13 10 0.0 1.6 0.00 0.00 0.00 79 1016.2
20260505063537 13 4 0.0 1.6 0.00 0.00 0.00 77 1016.2
20260505062517 13 354 0.0 3.2 0.00 0.00 0.00 76 1016.1
20260505061517 13 331 0.0 4.8 0.00 0.00 0.00 76 1016.1
20260505060518 13 336 0.0 3.2 0.00 0.00 0.00 76 1016.2
20260505055538 14 346 0.0 3.2 0.00 0.00 0.00 75 1016.3
20260505054518 15 343 0.0 1.6 0.00 0.00 0.00 73 1016.3
20260505053518 15 8 1.6 3.2 0.00 0.00 0.00 72 1016.3
20260505052539 15 2 1.6 4.8 0.00 0.00 0.00 71 1016.4
20260505051518 15 351 1.6 3.2 0.00 0.00 0.00 71 1016.4
20260505050519 15 325 0.0 3.2 0.00 0.00 0.00 70 1016.5
20260505041517 16 296 3.2 6.4 0.00 0.00 0.00 67 1016.3
20260505040520 17 328 1.6 4.8 0.00 0.00 0.00 67 1016.4
20260505035538 17 303 1.6 9.7 0.00 0.00 0.00 65 1016.3
20260505034518 17 333 1.6 4.8 0.00 0.00 0.00 65 1016.3
20260505033518 17 308 1.6 6.4 0.00 0.00 0.00 64 1016.2
20260505032516 17 266 3.2 9.7 0.00 0.00 0.00 63 1016.2
20260505031516 17 258 3.2 17.7 0.00 0.00 0.00 62 1016.2
20260505030515 18 264 3.2 12.9 0.00 0.00 0.00 62 1016.2
20260505025515 18 269 3.2 11.3 0.00 0.00 0.00 62 1016.2
20260505024515 18 276 3.2 11.3 0.00 0.00 0.00 62 1016.2
20260505023516 18 255 3.2 8.0 0.00 0.00 0.00 61 1016.1
20260505022516 18 256 1.6 9.7 0.00 0.00 0.00 61 1016.1
20260505021516 18 250 3.2 17.7 0.00 0.00 0.00 61 1016.0
20260505020516 19 262 1.6 9.7 0.00 0.00 0.00 61 1016.0
20260505015517 19 252 1.6 11.3 0.00 0.00 0.00 61 1015.9
20260505014537 20 256 1.6 8.0 0.00 0.00 0.00 60 1015.8
20260505013517 20 257 1.6 11.3 0.00 0.00 0.00 58 1015.7
20260505012517 20 257 3.2 8.0 0.00 0.00 0.00 56 1015.4
20260505011517 20 251 3.2 9.7 0.00 0.00 0.00 53 1015.2
20260505010538 20 278 1.6 6.4 0.00 0.00 0.00 50 1015.1
20260505005537 20 286 0.0 4.8 0.00 0.00 0.00 49 1015.0
20260505004558 20 268 1.6 4.8 0.00 0.00 0.00 49 1014.8
20260505003538 20 291 0.0 3.2 0.00 0.00 0.00 48 1014.8
20260505002518 21 274 0.0 3.2 0.00 0.00 0.00 46 1014.8
20260505001518 21 275 0.0 4.8 0.00 0.00 0.00 45 1014.7
20260505000518 22 264 0.0 6.4 0.00 0.00 0.00 44 1014.6
20260504235515 22 272 1.6 6.4 0.00 0.00 0.00 42 1014.5
20260504234515 22 265 1.6 8.0 0.00 0.00 0.00 41 1014.3
20260504233516 23 255 1.6 8.0 0.00 0.00 0.00 41 1014.2
20260504232516 23 234 1.6 4.8 0.00 0.00 0.00 40 1014.1
20260504231516 23 251 1.6 6.4 0.00 0.00 0.00 39 1014.0
20260504230517 24 249 3.2 12.9 0.00 0.00 0.00 38 1013.9
20260504225516 24 245 1.6 6.4 0.00 0.00 0.00 39 1013.9
20260504224516 25 244 3.2 8.0 0.00 0.00 0.00 37 1013.9
20260504223557 25 249 3.2 9.7 0.00 0.00 0.00 37 1013.8
20260504222517 25 241 3.2 11.3 0.00 0.00 0.00 37 1013.8
20260504221518 26 246 4.8 11.3 0.00 0.00 0.00 36 1013.7
20260504220537 26 239 3.2 8.0 0.00 0.00 0.00 35 1013.8
20260504215537 26 243 4.8 12.9 0.00 0.00 0.00 35 1013.6
20260504214517 26 238 4.8 16.1 0.00 0.00 0.00 35 1013.5
20260504213517 26 241 3.2 9.7 0.00 0.00 0.00 33 1013.5
20260504212538 26 256 3.2 8.0 0.00 0.00 0.00 33 1013.6
20260504211518 26 234 3.2 14.5 0.00 0.00 0.00 32 1013.5
20260504210515 26 253 6.4 14.5 0.00 0.00 0.00 31 1013.6
20260504205515 26 236 3.2 9.7 0.00 0.00 0.00 31 1013.6
20260504204515 27 247 4.8 16.1 0.00 0.00 0.00 31 1013.6
20260504203516 27 230 3.2 8.0 0.00 0.00 0.00 31 1013.7
20260504202516 27 218 3.2 11.3 0.00 0.00 0.00 31 1013.8
20260504201516 27 246 4.8 12.9 0.00 0.00 0.00 30 1014.0
20260504200516 26 249 3.2 9.7 0.00 0.00 0.00 31 1013.9
20260504195516 26 252 4.8 14.5 0.00 0.00 0.00 31 1014.0
20260504194516 26 233 3.2 11.3 0.00 0.00 0.00 31 1013.9
20260504193517 26 243 4.8 12.9 0.00 0.00 0.00 31 1014.0
20260504192516 26 253 3.2 9.7 0.00 0.00 0.00 31 1014.2
20260504191517 26 243 3.2 9.7 0.00 0.00 0.00 34 1014.3
20260504190517 26 247 6.4 12.9 0.00 0.00 0.00 33 1014.6
20260504185518 26 229 3.2 8.0 0.00 0.00 0.00 35 1014.5
20260504184538 26 227 4.8 14.5 0.00 0.00 0.00 34 1014.5
20260504183538 25 239 6.4 11.3 0.00 0.00 0.00 33 1014.6
20260504182538 25 247 6.4 14.5 0.00 0.00 0.00 35 1014.7
20260504181518 25 246 6.4 12.9 0.00 0.00 0.00 35 1014.8
20260504180515 25 233 3.2 12.9 0.00 0.00 0.00 36 1014.7
20260504175515 25 241 4.8 11.3 0.00 0.00 0.00 36 1014.9
20260504174516 25 244 6.4 16.1 0.00 0.00 0.00 37 1015.1
20260504173516 24 250 3.2 8.0 0.00 0.00 0.00 39 1015.2
20260504172516 24 254 6.4 14.5 0.00 0.00 0.00 38 1015.4
20260504171515 23 333 3.2 8.0 0.00 0.00 0.00 39 1015.5
20260504170516 24 248 6.4 14.5 0.00 0.00 0.00 39 1015.5
20260504150538 20 249 3.2 11.3 0.00 0.00 0.00 53 1016.5